Weather in Morshansk

Russia / Tambov Oblast     53°26′36″N   41°48′41″E
temp.,
°C
wind,
m/s
gust,
m/s
humid.,
%
clouds,
%
prec.,
mm/h
press.,
hPa
HPBL,
m
4 march, thu
thu400:00−2w51292100 0.0 1011466
03:00−2wsw61292100 0.1 1009483
06:00−2wsw71493100 0.0 1006560
09:000wsw91690100 0.2 1005696
12:00+1wsw81588100 0.0 1003776
15:00+1wsw81384100 0.0 1002944
18:00−1wsw61291100 0.1 1001727
21:00−1wsw41096100 0.3 1001546
5 march, fri
fri500:00−2wsw4995100 0.3 1000406
03:00−2w4797100 0.9 1001358
06:00−4nnw3797100 0.4 1003208
09:00−5nnw4795100 0.5 1006287
12:00−3nw359085 0.0 1008508
15:00−3wnw458883 0.0 1010513
18:00−7w349241 0.0 101160
21:00−9w349344 0.0 101446
6 march, sat
sat600:00−9wnw239276 0.0 101525
03:00−10wnw229188 0.0 101621
06:00−12n129297 0.0 101621
09:00−9ne119199 0.0 101669
12:00−5se018265 0.0 1016322
15:00−4wnw118063 0.0 1015406
18:00−9nw119160 0.0 101421
21:00−9sw119680 0.2 101624
7 march, sun
sun700:00−9w339681 0.1 101680
03:00−12w349671 0.3 101670
06:00−14wsw359521 0.0 101578
09:00−10sw6138835 0.0 1013430
12:00−5sw91581100 0.0 1009930
15:00−4sw101777100 0.0 10051218
18:00−4sw101793100 1.3 10011206
21:00−3wnw51380100 2.7 10011029
8 march, mon
mon800:00−10w468467 0.0 100396
03:00−12sw477833 0.0 1003102
06:00−10ssw4108831 0.0 1001208
09:00−5sw6129066 0.0 998750
12:00−5w111491100 0.5 9981210
15:00−7w10157794 0.6 10021619
18:00−8wnw8158996 0.1 10061022
21:00−11w5128780 0.1 1010355